• In Italy
  • List of Countries
  • For 7 days
  • Water Temperature
  • Satellite Maps
  • Weather Map
  • Weather Widgets
  • user-avatar
    Login

    Hourly Weather Skubyatino

    Today, 16 July, Monday

    Time Temperature Precipitation Wind Pressure Humidity
    00:00 +19°C° 0 mm 1 mps 742 mmHg 94%
    01:00 +18°C° 0 mm 2 mps 742 mmHg 95%
    02:00 +18°C° 0 mm 1 mps 743 mmHg 96%
    03:00 +19°C° 0 mm 1 mps 743 mmHg 96%
    04:00 +18°C° 0 mm 2 mps 742 mmHg 96%
    05:00 +18°C° 0 mm 2 mps 742 mmHg 97%
    06:00 +19°C° 0.1 mm 2 mps 742 mmHg 94%
    07:00 +20°C° 0.1 mm 3 mps 743 mmHg 91%
    08:00 +22°C° 0 mm 3 mps 743 mmHg 87%
    09:00 +24°C° 0.6 mm 3 mps 743 mmHg 83%
    10:00 +25°C° 0.6 mm 3 mps 742 mmHg 79%
    11:00 +26°C° 0.6 mm 4 mps 742 mmHg 75%
    12:00 +27°C° 0.7 mm 4 mps 742 mmHg 77%
    13:00 +27°C° 0.7 mm 4 mps 742 mmHg 78%
    14:00 +27°C° 0.7 mm 4 mps 742 mmHg 80%
    15:00 +26°C° 0.4 mm 4 mps 742 mmHg 80%
    16:00 +26°C° 0.4 mm 3 mps 741 mmHg 81%
    17:00 +26°C° 0.4 mm 3 mps 741 mmHg 82%
    18:00 +25°C° 0.3 mm 3 mps 741 mmHg 84%
    19:00 +24°C° 0.3 mm 3 mps 741 mmHg 87%
    20:00 +22°C° 0.3 mm 3 mps 741 mmHg 89%
    21:00 +21°C° 0.5 mm 3 mps 741 mmHg 91%
    22:00 +21°C° 0.5 mm 3 mps 741 mmHg 92%
    23:00 +20°C° 0.5 mm 3 mps 741 mmHg 94%

    Tomorrow, 17 July, Tuesday

    Time Temperature Precipitation Wind Pressure Humidity
    00:00 +20°C° 0.1 mm 3 mps 741 mmHg 94%
    01:00 +20°C° 0.1 mm 3 mps 741 mmHg 95%
    02:00 +20°C° 0.1 mm 3 mps 741 mmHg 95%
    03:00 +20°C° 0 mm 4 mps 740 mmHg 96%
    04:00 +20°C° 0 mm 4 mps 740 mmHg 96%
    05:00 +20°C° 0 mm 4 mps 740 mmHg 96%
    06:00 +21°C° 0 mm 4 mps 740 mmHg 91%
    07:00 +22°C° 0 mm 5 mps 740 mmHg 86%
    08:00 +25°C° 0 mm 5 mps 740 mmHg 82%
    09:00 +26°C° 0.1 mm 5 mps 740 mmHg 75%
    10:00 +28°C° 0.1 mm 5 mps 740 mmHg 68%
    11:00 +29°C° 0.1 mm 5 mps 740 mmHg 61%
    12:00 +29°C° 0.2 mm 5 mps 740 mmHg 61%
    13:00 +30°C° 0.2 mm 5 mps 740 mmHg 61%
    14:00 +30°C° 0.2 mm 5 mps 739 mmHg 61%
    15:00 +29°C° 0.4 mm 5 mps 739 mmHg 64%
    16:00 +29°C° 0.4 mm 4 mps 739 mmHg 67%
    17:00 +29°C° 0.4 mm 4 mps 739 mmHg 69%
    18:00 +27°C° 0.2 mm 4 mps 739 mmHg 74%
    19:00 +26°C° 0.2 mm 3 mps 739 mmHg 78%
    20:00 +24°C° 0.2 mm 3 mps 739 mmHg 82%
    21:00 +22°C° 0 mm 3 mps 739 mmHg 84%
    22:00 +22°C° 0 mm 3 mps 739 mmHg 85%
    23:00 +21°C° 0 mm 3 mps 739 mmHg 86%

    Day after tomorrow, 18 July, Wednesday

    Time Temperature Precipitation Wind Pressure Humidity
    00:00 +21°C° 0 mm 3 mps 739 mmHg 88%
    01:00 +20°C° 0 mm 3 mps 739 mmHg 89%
    02:00 +20°C° 0 mm 3 mps 739 mmHg 91%
    03:00 +20°C° 0 mm 3 mps 739 mmHg 91%
    04:00 +20°C° 0 mm 3 mps 739 mmHg 90%
    05:00 +20°C° 0 mm 4 mps 739 mmHg 90%
    06:00 +21°C° 0 mm 4 mps 739 mmHg 86%
    07:00 +22°C° 0 mm 4 mps 739 mmHg 82%
    08:00 +23°C° 0 mm 4 mps 739 mmHg 78%
    09:00 +23°C° 0 mm 4 mps 739 mmHg 78%
    10:00 +23°C° 0 mm 4 mps 739 mmHg 77%
    11:00 +25°C° 0 mm 4 mps 739 mmHg 77%
    12:00 +25°C° 0.1 mm 4 mps 739 mmHg 74%
    13:00 +26°C° 0.1 mm 4 mps 739 mmHg 70%
    14:00 +27°C° 0.1 mm 4 mps 739 mmHg 67%
    15:00 +27°C° 0.3 mm 4 mps 739 mmHg 69%
    16:00 +26°C° 0.3 mm 4 mps 739 mmHg 71%
    17:00 +26°C° 0.3 mm 4 mps 738 mmHg 73%
    18:00 +25°C° 0.2 mm 4 mps 738 mmHg 78%
    19:00 +22°C° 0.2 mm 3 mps 738 mmHg 83%
    20:00 +21°C° 0.2 mm 3 mps 738 mmHg 88%
    21:00 +20°C° 0.1 mm 3 mps 738 mmHg 90%
    22:00 +20°C° 0.1 mm 3 mps 738 mmHg 92%
    23:00 +19°C° 0.1 mm 3 mps 738 mmHg 94%

    19 July, Thursday

    Time Temperature Precipitation Wind Pressure Humidity
    00:00 +19°C° 0 mm 3 mps 738 mmHg 95%
    01:00 +19°C° 0 mm 3 mps 738 mmHg 95%
    02:00 +19°C° 0 mm 3 mps 738 mmHg 96%
    03:00 +19°C° 0.2 mm 3 mps 738 mmHg 96%
    04:00 +19°C° 0.2 mm 3 mps 738 mmHg 96%
    05:00 +19°C° 0.2 mm 3 mps 738 mmHg 97%
    06:00 +19°C° 0.3 mm 3 mps 738 mmHg 95%
    07:00 +20°C° 0.3 mm 3 mps 738 mmHg 94%
    08:00 +20°C° 0.3 mm 4 mps 738 mmHg 93%
    09:00 +21°C° 0.7 mm 4 mps 738 mmHg 91%
    10:00 +22°C° 0.7 mm 4 mps 738 mmHg 88%
    11:00 +23°C° 0.7 mm 4 mps 738 mmHg 86%
    12:00 +23°C° 1 mm 4 mps 738 mmHg 86%
    13:00 +23°C° 1 mm 4 mps 738 mmHg 86%
    14:00 +23°C° 1 mm 5 mps 738 mmHg 86%
    15:00 +23°C° 0.5 mm 4 mps 738 mmHg 85%
    16:00 +23°C° 0.5 mm 4 mps 738 mmHg 84%
    17:00 +23°C° 0.5 mm 4 mps 738 mmHg 83%
    18:00 +22°C° 0.1 mm 3 mps 738 mmHg 86%
    19:00 +21°C° 0.1 mm 3 mps 738 mmHg 89%
    20:00 +20°C° 0.1 mm 2 mps 738 mmHg 92%
    21:00 +19°C° 0 mm 2 mps 738 mmHg 94%
    22:00 +19°C° 0 mm 2 mps 738 mmHg 95%
    23:00 +18°C° 0 mm 2 mps 738 mmHg 97%

    20 July, Friday

    Time Temperature Precipitation Wind Pressure Humidity
    00:00 +18°C° 0 mm 2 mps 738 mmHg 97%
    01:00 +17°C° 0 mm 2 mps 738 mmHg 98%
    02:00 +17°C° 0 mm 2 mps 738 mmHg 98%
    03:00 +17°C° 0 mm 2 mps 738 mmHg 98%
    04:00 +17°C° 0 mm 2 mps 738 mmHg 98%
    05:00 +17°C° 0 mm 2 mps 738 mmHg 98%
    06:00 +18°C° 0 mm 2 mps 738 mmHg 95%
    07:00 +21°C° 0 mm 1 mps 738 mmHg 93%
    08:00 +22°C° 0 mm 1 mps 738 mmHg 90%
    09:00 +23°C° 0.3 mm 1 mps 738 mmHg 87%
    10:00 +24°C° 0.3 mm 1 mps 738 mmHg 84%
    11:00 +25°C° 0.3 mm 1 mps 738 mmHg 81%
    12:00 +25°C° 0.5 mm 1 mps 738 mmHg 78%
    13:00 +26°C° 0.5 mm 1 mps 738 mmHg 75%
    14:00 +27°C° 0.5 mm 1 mps 738 mmHg 72%
    15:00 +27°C° 0.8 mm 1 mps 738 mmHg 73%
    16:00 +27°C° 0.8 mm 1 mps 738 mmHg 74%
    17:00 +27°C° 0.8 mm 1 mps 738 mmHg 74%
    18:00 +23°C° 0.6 mm 0 mps 738 mmHg 80%
    19:00 +22°C° 0.6 mm 0 mps 738 mmHg 85%
    20:00 +20°C° 0.6 mm 0 mps 738 mmHg 91%
    21:00 +20°C° 0 mm 0 mps 738 mmHg 92%
    22:00 +19°C° 0 mm 0 mps 738 mmHg 93%
    23:00 +18°C° 0 mm 0 mps 738 mmHg 94%

    21 July, Saturday

    Time Temperature Precipitation Wind Pressure Humidity
    00:00 +18°C° 0 mm 0 mps 738 mmHg 94%
    01:00 +18°C° 0 mm 0 mps 738 mmHg 95%
    02:00 +18°C° 0 mm 0 mps 738 mmHg 95%
    03:00 +18°C° 0 mm 0 mps 738 mmHg 95%
    04:00 +18°C° 0 mm 0 mps 738 mmHg 96%
    05:00 +18°C° 0 mm 0 mps 738 mmHg 96%
    06:00 +19°C° 0.2 mm 0 mps 738 mmHg 93%
    07:00 +21°C° 0.2 mm 0 mps 738 mmHg 90%
    08:00 +22°C° 0.2 mm 0 mps 738 mmHg 86%
    09:00 +24°C° 0.5 mm 0 mps 738 mmHg 82%
    10:00 +25°C° 0.5 mm 0 mps 738 mmHg 77%
    11:00 +26°C° 0.5 mm 0 mps 738 mmHg 72%
    12:00 +26°C° 0.4 mm 0 mps 738 mmHg 70%
    13:00 +29°C° 0.4 mm 1 mps 738 mmHg 68%
    14:00 +29°C° 0.4 mm 1 mps 738 mmHg 65%
    15:00 +29°C° 0.2 mm 1 mps 738 mmHg 66%
    16:00 +29°C° 0.2 mm 1 mps 737 mmHg 66%
    17:00 +29°C° 0.2 mm 1 mps 737 mmHg 66%
    18:00 +27°C° 0.6 mm 1 mps 737 mmHg 74%
    19:00 +25°C° 0.6 mm 1 mps 737 mmHg 81%
    20:00 +24°C° 0.6 mm 1 mps 737 mmHg 88%
    21:00 +23°C° 0 mm 1 mps 737 mmHg 90%
    22:00 +22°C° 0 mm 1 mps 737 mmHg 91%
    23:00 +22°C° 0 mm 1 mps 737 mmHg 93%
    Show more